User: anonymous   Login
Location: Caltech
(34.1382°N, 118.1253°W)
Time: 01:24:38
(UTC-08:00)
Language:

AO-27 - Orbit

View from above orbital plane
View from above orbital plane
View from above satellite
View from above satellite

Ground track
Ground track

The orbit data is extracted from the following two-line orbital elements,

1 22825U 93061C   17057.49995252  .00000007  00000-0  20510-4 0  9992
2 22825  98.7980  21.8070 0007459 299.0145  61.0289 14.29986929221588
Epoch (UTC): 26 February 2017 11:59:55
Eccentricity: 0.0007459
inclination: 98.7980°
perigee height: 786 km
apogee height: 797 km
right ascension of ascending node: 21.8070°
argument of perigee: 299.0145°
revolutions per day: 14.29986929
mean anomaly at epoch: 61.0289°
orbit number at epoch: 22158

The dashed part of the orbit path shows where the satellite is in the earth's shadow,  

DLR